20050628,202814,0,32.707186,-117.236743,NaN,NaN,NaN,NaN
20050628,202845,31,32.707185,-117.236745,NaN,NaN,NaN,NaN
20050628,202920,66,32.707183,-117.236743,21.265,3.251,-0.206,-0.103
20050628,202949,94,32.707185,-117.236745,21.267,3.251,-0.212,-0.106
20050628,203020,126,32.707185,-117.236740,21.271,3.252,-0.212,-0.106
20050628,203050,155,32.707181,-117.236733,21.273,3.252,-0.212,-0.106
20050628,203120,185,32.707181,-117.236737,21.278,3.251,-0.212,-0.106
20050628,203150,216,32.707173,-117.236743,21.281,3.251,-0.212,-0.106
20050628,203220,246,32.707176,-117.236742,21.285,3.251,-0.206,-0.103
20050628,203251,277,32.707178,-117.236743,21.289,3.251,-0.206,-0.103
20050628,203320,305,32.707176,-117.236742,21.293,3.252,-0.212,-0.106
20050628,203350,335,32.707180,-117.236742,21.296,3.252,-0.206,-0.103
20050628,203420,366,32.707190,-117.236740,21.301,3.251,-0.206,-0.103
20050628,203450,396,32.707190,-117.236733,21.305,3.251,-0.212,-0.106
20050628,203521,426,32.707196,-117.236742,21.309,3.251,-0.212,-0.106
20050628,203551,457,32.707193,-117.236747,21.313,3.251,-0.206,-0.103
20050628,203621,487,32.707198,-117.236747,21.316,3.252,-0.212,-0.106
20050628,203651,517,32.707200,-117.236742,21.321,3.251,-0.206,-0.103
20050628,203721,547,32.707203,-117.236742,21.325,3.251,-0.212,-0.106
20050628,203751,576,32.707203,-117.236740,21.328,3.251,-0.206,-0.103
20050628,203821,607,32.707206,-117.236740,21.331,3.251,-0.212,-0.106
20050628,203852,637,32.707203,-117.236737,21.336,3.252,-0.212,-0.106
20050628,203921,667,32.707206,-117.236742,21.340,3.252,-0.212,-0.106
20050628,203951,697,32.707205,-117.236737,21.343,3.251,-0.212,-0.106
20050628,204021,726,32.707201,-117.236737,21.347,3.251,-0.212,-0.106
20050628,204051,756,32.707198,-117.236737,21.351,3.251,-0.212,-0.106
20050628,204121,787,32.707201,-117.236735,21.355,3.251,-0.212,-0.106
20050628,204151,817,32.707201,-117.236733,21.359,3.252,-0.206,-0.103
20050628,204222,847,32.707203,-117.236733,21.363,3.252,-0.212,-0.106
20050628,204252,878,32.707198,-117.236735,21.367,3.251,-0.212,-0.106
20050628,204321,906,32.707198,-117.236737,21.371,3.251,-0.206,-0.103
20050628,204352,938,32.707200,-117.236730,21.375,3.251,-0.206,-0.103
20050628,204421,967,32.707200,-117.236737,21.379,3.252,-0.206,-0.103
20050628,204452,997,32.707198,-117.236733,21.381,3.252,-0.212,-0.106
20050628,204522,1028,32.707198,-117.236730,21.385,3.251,-0.212,-0.106
20050628,204552,1058,32.707198,-117.236733,21.389,3.251,-0.212,-0.106
20050628,204622,1088,32.707195,-117.236737,21.392,3.251,-0.212,-0.106
20050628,204652,1118,32.707200,-117.236735,21.396,3.252,-0.206,-0.102
20050628,204721,1147,32.707196,-117.236738,21.399,3.252,-0.206,-0.103
20050628,204752,1177,32.707198,-117.236738,21.403,3.252,-0.212,-0.106
20050628,204823,1209,32.707198,-117.236737,21.406,3.252,-0.206,-0.103
20050628,204852,1238,32.707200,-117.236735,21.409,3.251,-0.212,-0.106
20050628,204923,1268,32.707198,-117.236737,21.414,3.251,-0.212,-0.106
20050628,204952,1298,32.707191,-117.236740,21.417,3.252,-0.212,-0.106
20050628,205022,1327,32.707196,-117.236740,21.421,3.252,-0.206,-0.103
20050628,205053,1359,32.707195,-117.236738,21.424,3.252,-0.212,-0.106
20050628,205123,1388,32.707196,-117.236738,21.428,3.252,-0.206,-0.103
20050628,205152,1418,32.707198,-117.236733,21.431,3.251,-0.206,-0.103
20050628,205223,1449,32.707200,-117.236732,21.433,3.251,-0.206,-0.103
20050628,205253,1479,32.707200,-117.236732,21.437,3.251,-0.212,-0.106
20050628,205323,1509,32.707196,-117.236732,21.440,3.251,-0.212,-0.106
20050628,205353,1539,32.707196,-117.236737,21.444,3.252,-0.206,-0.103
20050628,205423,1568,32.707196,-117.236738,21.447,3.252,-0.206,-0.103
20050628,205453,1598,32.707193,-117.236738,21.450,3.251,-0.206,-0.103
20050628,205524,1630,32.707196,-117.236743,21.453,3.251,-0.212,-0.106
20050628,205553,1659,32.707195,-117.236737,21.457,3.251,-0.212,-0.106
20050628,205623,1689,32.707193,-117.236740,21.460,3.252,-0.212,-0.106
20050628,205654,1720,32.707195,-117.236735,21.464,3.252,-0.212,-0.106
20050628,205723,1748,32.707195,-117.236738,21.468,3.252,-0.212,-0.106
20050628,205753,1779,32.707195,-117.236732,21.471,3.252,-0.212,-0.106
20050628,205823,1809,32.707200,-117.236740,21.475,3.251,-0.212,-0.106
20050628,205854,1839,32.707195,-117.236742,21.479,3.252,-0.212,-0.106
20050628,205923,1869,32.707195,-117.236740,21.482,3.251,-0.212,-0.106
20050628,205953,1898,32.707196,-117.236743,21.485,3.252,-0.206,-0.103
20050628,210023,1928,32.707198,-117.236745,21.487,3.252,-0.206,-0.103
20050628,210053,1959,32.707198,-117.236745,21.491,3.252,-0.212,-0.106
20050628,210123,1989,32.707195,-117.236725,21.495,3.251,-0.212,-0.106
20050628,210154,2019,32.707200,-117.236742,21.498,3.251,-0.212,-0.106
20050628,210224,2050,32.707196,-117.236730,21.502,3.252,-0.206,-0.103
20050628,210254,2080,32.707198,-117.236742,21.505,3.252,-0.206,-0.103
20050628,210323,2108,32.707198,-117.236738,21.508,3.252,-0.212,-0.106
20050628,210354,2139,32.707193,-117.236740,21.512,3.252,-0.206,-0.103
20050628,210423,2169,32.707196,-117.236742,21.516,3.251,-0.206,-0.103
20050628,210454,2200,32.707201,-117.236743,21.519,3.251,-0.212,-0.106
20050628,210524,2230,32.707200,-117.236743,21.523,3.252,-0.206,-0.103
20050628,210554,2260,32.707201,-117.236745,21.526,3.252,-0.206,-0.103
20050628,210624,2290,32.707198,-117.236745,21.530,3.252,-0.212,-0.106
20050628,210653,2319,32.707203,-117.236742,21.534,3.252,-0.206,-0.103
20050628,210723,2349,32.707200,-117.236743,21.537,3.252,-0.212,-0.106
20050628,210754,2380,32.707201,-117.236738,21.540,3.252,-0.206,-0.103
20050628,210824,2410,32.707198,-117.236735,21.544,3.252,-0.206,-0.103
20050628,210854,2440,32.707196,-117.236740,21.546,3.252,-0.212,-0.106
20050628,210924,2470,32.707193,-117.236740,21.550,3.252,-0.206,-0.103
20050628,210955,2501,32.707196,-117.236740,21.553,3.252,-0.212,-0.106
20050628,211025,2531,32.707201,-117.236742,21.557,3.252,-0.212,-0.106
20050628,211055,2560,32.707201,-117.236740,21.560,3.251,-0.206,-0.103
20050628,211125,2590,32.707200,-117.236738,21.564,3.252,-0.206,-0.103
20050628,211154,2620,32.707200,-117.236748,21.567,3.252,-0.206,-0.103
20050628,211225,2651,32.707205,-117.236745,21.571,3.252,-0.206,-0.103
20050628,211255,2681,32.707201,-117.236745,21.574,3.252,-0.212,-0.106
20050628,211325,2711,32.707200,-117.236747,21.578,3.252,-0.206,-0.103
20050628,211356,2742,32.707198,-117.236742,21.581,3.251,-0.212,-0.106
20050628,211425,2770,32.707195,-117.236750,21.584,3.252,-0.206,-0.103
20050628,211455,2801,32.707193,-117.236737,21.588,3.252,-0.206,-0.103
20050628,211525,2831,32.707193,-117.236735,21.591,3.252,-0.206,-0.103
20050628,211555,2861,32.707196,-117.236730,21.593,3.252,-0.206,-0.103
20050628,211625,2891,32.707193,-117.236730,21.597,3.252,-0.206,-0.103
20050628,211655,2920,32.707195,-117.236727,21.600,3.252,-0.212,-0.106
20050628,211725,2951,32.707191,-117.236730,21.603,3.252,-0.212,-0.106
20050628,211755,2981,32.707195,-117.236728,21.607,3.252,-0.206,-0.103
20050628,211825,3011,32.707195,-117.236733,21.609,3.252,-0.206,-0.103
20050628,211856,3042,32.707191,-117.236730,21.613,3.252,-0.206,-0.103
20050628,211926,3072,32.707196,-117.236728,21.617,3.252,-0.206,-0.103
20050628,211956,3102,32.707190,-117.236737,21.620,3.252,-0.206,-0.103
20050628,212025,3131,32.707196,-117.236732,21.623,3.251,-0.206,-0.103
20050628,212055,3161,32.707195,-117.236732,21.627,3.252,-0.206,-0.103
20050628,212125,3191,32.707196,-117.236732,21.630,3.252,-0.206,-0.103
20050628,212155,3221,32.707191,-117.236732,21.633,3.252,-0.206,-0.103
20050628,212226,3252,32.707193,-117.236732,21.637,3.252,-0.206,-0.103
20050628,212255,3280,32.707198,-117.236732,21.641,3.252,-0.206,-0.103
20050628,212326,3311,32.707193,-117.236738,21.644,3.252,-0.212,-0.106
20050628,212356,3341,32.707198,-117.236735,21.647,3.252,-0.212,-0.106
20050628,212426,3372,32.707196,-117.236740,21.651,3.252,-0.206,-0.103
20050628,212456,3402,32.707186,-117.236737,21.654,3.252,-0.206,-0.103
20050628,212526,3432,32.707195,-117.236738,21.658,3.252,-0.206,-0.103
20050628,212556,3462,32.707195,-117.236738,21.660,3.252,-0.206,-0.103
20050628,212626,3491,32.707191,-117.236737,21.663,3.252,-0.206,-0.103
20050628,212657,3523,32.707190,-117.236742,21.667,3.252,-0.206,-0.103
20050628,212727,3553,32.707193,-117.236737,21.671,3.252,-0.206,-0.103
20050628,212756,3582,32.707188,-117.236738,21.674,3.252,-0.206,-0.103
20050628,212826,3612,32.707188,-117.236737,21.677,3.252,-0.206,-0.103
20050628,212857,3643,32.707190,-117.236737,21.681,3.252,-0.212,-0.106
20050628,212927,3673,32.707196,-117.236735,21.685,3.252,-0.206,-0.103
20050628,212957,3703,32.707195,-117.236733,21.688,3.252,-0.206,-0.103
20050628,213027,3732,32.707198,-117.236738,21.691,3.252,-0.206,-0.103
20050628,213057,3762,32.707190,-117.236735,21.696,3.252,-0.212,-0.106
20050628,213127,3793,32.707195,-117.236738,21.697,3.252,-0.206,-0.103
20050628,213157,3823,32.707195,-117.236735,21.701,3.252,-0.212,-0.106
20050628,213228,3853,32.707193,-117.236737,21.703,3.252,-0.212,-0.106
20050628,213257,3883,32.707193,-117.236738,21.707,3.252,-0.206,-0.102
20050628,213327,3912,32.707195,-117.236737,21.710,3.252,-0.212,-0.106
20050628,213357,3942,32.707193,-117.236735,21.714,3.252,-0.206,-0.102
20050628,213427,3973,32.707198,-117.236737,21.718,3.252,-0.212,-0.106
20050628,213457,4003,32.707193,-117.236740,21.721,3.252,-0.206,-0.102
20050628,213528,4034,32.707191,-117.236738,21.725,3.252,-0.206,-0.102
20050628,213557,4062,32.707191,-117.236738,21.728,3.252,-0.206,-0.102
20050628,213628,4094,32.707191,-117.236738,21.732,3.252,-0.212,-0.106
20050628,213657,4123,32.707193,-117.236737,21.735,3.252,-0.206,-0.102
20050628,213728,4153,32.707191,-117.236733,21.739,3.252,-0.212,-0.106
20050628,213758,4183,32.707193,-117.236737,21.742,3.252,-0.206,-0.102
20050628,213827,4213,32.707193,-117.236740,21.745,3.252,-0.206,-0.102
20050628,213858,4244,32.707196,-117.236737,21.749,3.252,-0.206,-0.102
20050628,213928,4274,32.707190,-117.236737,21.751,3.252,-0.212,-0.106
20050628,213958,4304,32.707190,-117.236740,21.755,3.252,-0.206,-0.102
20050628,214029,4335,32.707188,-117.236733,21.759,3.252,-0.206,-0.102
20050628,214058,4364,32.707188,-117.236737,21.762,3.252,-0.206,-0.102
20050628,214128,4394,32.707185,-117.236733,21.765,3.252,-0.212,-0.106
20050628,214158,4424,32.707190,-117.236733,21.768,3.252,-0.212,-0.106
20050628,214228,4454,32.707183,-117.236733,21.771,3.252,-0.206,-0.102
20050628,214258,4483,32.707185,-117.236733,21.775,3.252,-0.206,-0.102
20050628,214328,4513,32.707195,-117.236702,21.778,3.252,-0.206,-0.102
20050628,214358,4544,32.707195,-117.236707,21.782,3.252,-0.212,-0.106
20050628,214428,4574,32.707216,-117.236705,21.786,3.252,-0.206,-0.102
20050628,214458,4604,32.707218,-117.236708,21.789,3.252,-0.212,-0.106
20050628,214528,4634,32.707208,-117.236715,21.792,3.252,-0.212,-0.106
20050628,214558,4663,32.707211,-117.236712,21.795,3.252,-0.206,-0.102
20050628,214629,4695,32.707208,-117.236715,21.798,3.252,-0.206,-0.102
20050628,214658,4724,32.707206,-117.236718,21.800,3.252,-0.206,-0.102
20050628,214729,4754,32.707205,-117.236718,21.802,3.253,-0.206,-0.102
20050628,214758,4784,32.707203,-117.236720,21.805,3.252,-0.206,-0.102
20050628,214829,4815,32.707203,-117.236718,21.807,3.252,-0.206,-0.102
20050628,214858,4843,32.707206,-117.236720,21.809,3.252,-0.206,-0.102
20050628,214929,4875,32.707205,-117.236718,21.813,3.252,-0.206,-0.102
20050628,214959,4904,32.707196,-117.236718,21.816,3.252,-0.206,-0.102
20050628,215029,4934,32.707196,-117.236718,21.820,3.252,-0.206,-0.102
20050628,215059,4965,32.707198,-117.236720,21.822,3.253,-0.206,-0.102
20050628,215129,4995,32.707198,-117.236718,21.825,3.252,-0.206,-0.102
20050628,215158,5023,32.707200,-117.236720,21.828,3.252,-0.212,-0.106
20050628,215229,5055,32.707196,-117.236723,21.831,3.252,-0.212,-0.106
20050628,215300,5086,32.707195,-117.236718,21.835,3.252,-0.206,-0.102
20050628,215330,5116,32.707193,-117.236722,21.838,3.252,-0.206,-0.102
20050628,215400,5145,32.707198,-117.236722,21.841,3.253,-0.206,-0.102
20050628,215430,5175,32.707195,-117.236720,21.843,3.253,-0.206,-0.102
20050628,215500,5206,32.707193,-117.236713,21.846,3.252,-0.206,-0.102
20050628,215530,5236,32.707198,-117.236720,21.850,3.252,-0.206,-0.102
20050628,215600,5266,32.707200,-117.236725,21.852,3.252,-0.206,-0.102
20050628,215630,5296,32.707201,-117.236723,21.856,3.252,-0.206,-0.102
20050628,215700,5325,32.707198,-117.236718,21.858,3.252,-0.206,-0.102
20050628,215730,5355,32.707200,-117.236718,21.859,3.252,-0.206,-0.102
20050628,215800,5386,32.707201,-117.236717,21.863,3.253,-0.212,-0.105
20050628,215830,5416,32.707198,-117.236723,21.866,3.253,-0.212,-0.106
20050628,215900,5446,32.707205,-117.236722,21.868,3.252,-0.206,-0.102
20050628,215931,5477,32.707198,-117.236718,21.871,3.252,-0.206,-0.102
20050628,220000,5505,32.707200,-117.236725,21.874,3.252,-0.206,-0.102
20050628,220031,5537,32.707203,-117.236720,21.877,3.252,-0.206,-0.102
20050628,220100,5566,32.707201,-117.236718,21.881,3.252,-0.212,-0.105
20050628,220130,5596,32.707200,-117.236717,21.883,3.253,-0.206,-0.102
20050628,220201,5627,32.707200,-117.236713,21.886,3.253,-0.206,-0.102
20050628,220231,5657,32.707201,-117.236713,21.889,3.252,-0.206,-0.102
20050628,220301,5687,32.707198,-117.236712,21.892,3.252,-0.212,-0.105
20050628,220331,5717,32.707201,-117.236712,21.896,3.252,-0.206,-0.102
20050628,220401,5746,32.707196,-117.236710,21.898,3.252,-0.206,-0.102
20050628,220431,5776,32.707200,-117.236710,21.901,3.252,-0.206,-0.102
20050628,220501,5807,32.707201,-117.236718,21.905,3.253,-0.212,-0.105
20050628,220531,5837,32.707196,-117.236712,21.907,3.253,-0.206,-0.102
20050628,220601,5867,32.707198,-117.236717,21.911,3.252,-0.212,-0.105
20050628,220631,5896,32.707201,-117.236717,21.915,3.252,-0.206,-0.102
20050628,220701,5926,32.707198,-117.236717,21.917,3.252,-0.206,-0.102
20050628,220732,5958,32.707200,-117.236715,21.919,3.252,-0.206,-0.102
20050628,220802,5987,32.707200,-117.236713,21.922,3.253,-0.206,-0.102
20050628,220831,6017,32.707200,-117.236715,21.926,3.253,-0.206,-0.102
20050628,220901,6047,32.707201,-117.236715,21.929,3.253,-0.212,-0.105
20050628,220932,6078,32.707201,-117.236713,21.931,3.252,-0.206,-0.102
20050628,221001,6106,32.707200,-117.236722,21.934,3.252,-0.206,-0.102
20050628,221032,6138,32.707203,-117.236718,21.937,3.252,-0.206,-0.102
20050628,221102,6167,32.707203,-117.236720,21.940,3.252,-0.206,-0.102
20050628,221132,6197,32.707211,-117.236722,21.943,3.253,-0.206,-0.102
20050628,221202,6228,32.707203,-117.236715,21.946,3.253,-0.212,-0.105
20050628,221232,6258,32.707203,-117.236718,21.948,3.253,-0.212,-0.105
20050628,221303,6289,32.707205,-117.236718,21.951,3.253,-0.206,-0.102
20050628,221332,6317,32.707198,-117.236712,21.953,3.252,-0.206,-0.102
20050628,221402,6347,32.707201,-117.236715,21.957,3.252,-0.206,-0.102
20050628,221432,6378,32.707206,-117.236718,21.959,3.252,-0.206,-0.102
20050628,221503,6408,32.707203,-117.236715,21.960,3.252,-0.212,-0.105
20050628,221533,6438,32.707201,-117.236717,21.963,3.253,-0.206,-0.102
20050628,221602,6468,32.707201,-117.236713,21.965,3.253,-0.206,-0.102
20050628,221632,6497,32.707201,-117.236712,21.967,3.253,-0.206,-0.102
20050628,221702,6527,32.707205,-117.236718,21.970,3.253,-0.212,-0.105
20050628,221733,6558,32.707206,-117.236722,21.972,3.253,-0.212,-0.105
20050628,221802,6588,32.707203,-117.236715,21.975,3.252,-0.206,-0.102
20050628,221833,6619,32.707205,-117.236717,21.978,3.252,-0.206,-0.102
20050628,221902,6648,32.707208,-117.236722,21.980,3.252,-0.206,-0.102
20050628,221933,6679,32.707210,-117.236720,21.983,3.252,-0.206,-0.102
20050628,222003,6709,32.707210,-117.236722,21.986,3.253,-0.206,-0.102
20050628,222033,6738,32.707210,-117.236725,21.989,3.253,-0.206,-0.102
20050628,222103,6768,32.707210,-117.236720,21.991,3.253,-0.206,-0.102
20050628,222133,6799,32.707208,-117.236718,21.993,3.253,-0.206,-0.102
20050628,222203,6829,32.707208,-117.236723,21.996,3.252,-0.206,-0.102
20050628,222233,6859,32.707206,-117.236725,21.999,3.252,-0.206,-0.102
20050628,222303,6889,32.707208,-117.236718,22.001,3.252,-0.206,-0.102
20050628,222333,6918,32.707210,-117.236717,22.005,3.253,-0.212,-0.105
20050628,222403,6948,32.707206,-117.236722,22.007,3.253,-0.206,-0.102
20050628,222433,6979,32.707210,-117.236720,22.010,3.253,-0.212,-0.105
20050628,222504,7009,32.707208,-117.236717,22.012,3.253,-0.206,-0.102
20050628,222533,7039,32.707206,-117.236717,22.015,3.253,-0.212,-0.105
20050628,222604,7070,32.707208,-117.236722,22.017,3.252,-0.206,-0.101
20050628,222634,7100,32.707206,-117.236717,22.019,3.252,-0.206,-0.102
20050628,222704,7130,32.707211,-117.236720,22.022,3.252,-0.212,-0.105
20050628,222733,7159,32.707206,-117.236725,22.025,3.252,-0.212,-0.105
20050628,222804,7189,32.707206,-117.236722,22.027,3.253,-0.206,-0.102
20050628,222834,7220,32.707210,-117.236720,22.030,3.253,-0.212,-0.105
20050628,222903,7248,32.707213,-117.236717,22.033,3.253,-0.206,-0.102
20050628,222934,7280,32.707208,-117.236722,22.036,3.253,-0.212,-0.105
20050628,223004,7310,32.707208,-117.236722,22.038,3.253,-0.212,-0.105
20050628,223034,7339,32.707210,-117.236720,22.042,3.252,-0.212,-0.105
20050628,223103,7369,32.707206,-117.236720,22.044,3.252,-0.206,-0.101
20050628,223133,7399,32.707203,-117.236722,22.046,3.252,-0.212,-0.105
20050628,223204,7430,32.707211,-117.236722,22.049,3.253,-0.206,-0.101
20050628,223234,7460,32.707206,-117.236723,22.052,3.253,-0.212,-0.105
20050628,223303,7489,32.707206,-117.236718,22.055,3.253,-0.206,-0.101
20050628,223333,7519,32.707208,-117.236725,22.057,3.253,-0.206,-0.101
20050628,223404,7550,32.707203,-117.236727,22.060,3.253,-0.212,-0.105
20050628,223435,7580,32.707210,-117.236723,22.062,3.252,-0.206,-0.101
20050628,223505,7610,32.707208,-117.236720,22.064,3.252,-0.212,-0.105
20050628,223535,7641,32.707208,-117.236718,22.067,3.253,-0.212,-0.105
20050628,223606,7671,32.707210,-117.236720,22.069,3.253,-0.212,-0.105
20050628,223635,7701,32.707211,-117.236723,22.069,3.253,-0.206,-0.101
20050628,223705,7730,32.707211,-117.236725,22.072,3.253,-0.212,-0.105
20050628,223735,7760,32.707210,-117.236723,22.074,3.253,-0.206,-0.101
20050628,223805,7791,32.707210,-117.236720,22.077,3.253,-0.212,-0.105
20050628,223835,7821,32.707211,-117.236722,22.081,3.253,-0.212,-0.105
20050628,223905,7851,32.707211,-117.236717,22.083,3.252,-0.206,-0.101
20050628,223935,7881,32.707211,-117.236725,22.088,3.253,-0.206,-0.101
20050628,224005,7910,32.707213,-117.236722,22.089,3.253,-0.206,-0.101
20050628,224036,7942,32.707205,-117.236738,22.092,3.253,-0.212,-0.104
20050628,224105,7971,32.707213,-117.236738,22.094,3.253,-0.206,-0.101
20050628,224136,8001,32.707213,-117.236728,22.097,3.253,-0.218,-0.108
20050628,224206,8032,32.707215,-117.236725,22.101,3.253,-0.212,-0.104
20050628,224236,8062,32.707216,-117.236728,22.103,3.253,-0.212,-0.104
20050628,224306,8092,32.707211,-117.236723,22.105,3.253,-0.212,-0.104
20050628,224336,8122,32.707215,-117.236723,22.107,3.252,-0.212,-0.104
20050628,224406,8151,32.707211,-117.236728,22.110,3.253,-0.212,-0.104
20050628,224436,8181,32.707218,-117.236720,22.113,3.253,-0.206,-0.101
20050628,224507,8213,32.707216,-117.236725,22.115,3.253,-0.212,-0.104
20050628,224536,8242,32.707218,-117.236725,22.118,3.253,-0.212,-0.104
20050628,224607,8272,32.707218,-117.236722,22.121,3.253,-0.212,-0.104
20050628,224637,8303,32.707215,-117.236723,22.122,3.253,-0.212,-0.104
20050628,224706,8331,32.707213,-117.236725,22.125,3.252,-0.212,-0.104
20050628,224736,8361,32.707215,-117.236723,22.128,3.252,-0.212,-0.104
20050628,224807,8392,32.707216,-117.236723,22.130,3.253,-0.212,-0.104
20050628,224837,8422,32.707213,-117.236727,22.132,3.253,-0.212,-0.104
20050628,224907,8453,32.707215,-117.236725,22.135,3.253,-0.206,-0.101
20050628,224937,8483,32.707215,-117.236722,22.138,3.253,-0.212,-0.104
20050628,225007,8513,32.707213,-117.236725,22.140,3.253,-0.212,-0.104
20050628,225038,8544,32.707216,-117.236725,22.142,3.253,-0.212,-0.104
20050628,225107,8572,32.707211,-117.236725,22.145,3.253,-0.212,-0.104
20050628,225138,8604,32.707208,-117.236723,22.147,3.252,-0.206,-0.101
20050628,225207,8633,32.707205,-117.236725,22.149,3.253,-0.212,-0.104
20050628,225237,8663,32.707206,-117.236730,22.152,3.253,-0.212,-0.104
20050628,225307,8693,32.707211,-117.236728,22.155,3.253,-0.212,-0.104
20050628,225337,8723,32.707210,-117.236727,22.157,3.253,-0.206,-0.101
20050628,225407,8752,32.707203,-117.236725,22.160,3.253,-0.218,-0.107
20050628,225437,8782,32.707205,-117.236723,22.162,3.253,-0.212,-0.104
20050628,225508,8813,32.707205,-117.236725,22.165,3.253,-0.206,-0.101
20050628,225538,8843,32.707211,-117.236727,22.167,3.253,-0.212,-0.104
20050628,225607,8873,32.707210,-117.236730,22.169,3.253,-0.212,-0.104
20050628,225638,8904,32.707205,-117.236730,22.172,3.253,-0.206,-0.101
20050628,225708,8934,32.707205,-117.236730,22.174,3.253,-0.206,-0.101
20050628,225737,8963,32.707210,-117.236728,22.176,3.253,-0.212,-0.104
20050628,225808,8993,32.707210,-117.236725,22.178,3.253,-0.212,-0.104
20050628,225837,9023,32.707208,-117.236725,22.180,3.253,-0.206,-0.100
20050628,225908,9054,32.707210,-117.236722,22.182,3.253,-0.206,-0.100
20050628,225938,9084,32.707210,-117.236725,22.185,3.253,-0.206,-0.100
20050628,230008,9114,32.707206,-117.236722,22.188,3.253,-0.206,-0.100
20050628,230038,9144,32.707196,-117.236725,22.190,3.253,-0.206,-0.100
20050628,230108,9173,32.707200,-117.236730,22.192,3.253,-0.206,-0.100
20050628,230138,9204,32.707211,-117.236725,22.195,3.253,-0.212,-0.104
20050628,230208,9234,32.707208,-117.236732,22.196,3.253,-0.212,-0.104
20050628,230238,9264,32.707201,-117.236730,22.198,3.253,-0.212,-0.104
20050628,230309,9295,32.707201,-117.236730,22.201,3.253,-0.206,-0.100
20050628,230339,9325,32.707206,-117.236728,22.204,3.253,-0.206,-0.100
20050628,230408,9353,32.707201,-117.236728,22.205,3.253,-0.206,-0.100
20050628,230439,9385,32.707195,-117.236730,22.208,3.253,-0.206,-0.100
20050628,230509,9414,32.707200,-117.236723,22.211,3.253,-0.206,-0.100
20050628,230539,9444,32.707208,-117.236727,22.213,3.253,-0.206,-0.100
20050628,230608,9474,32.707205,-117.236722,22.214,3.253,-0.206,-0.100
20050628,230639,9505,32.707205,-117.236727,22.216,3.253,-0.206,-0.100
20050628,230709,9535,32.707198,-117.236728,22.219,3.253,-0.206,-0.100
20050628,230739,9564,32.707210,-117.236728,22.221,3.253,-0.212,-0.103
20050628,230808,9594,32.707195,-117.236730,22.223,3.253,-0.206,-0.100
20050628,230838,9624,32.707191,-117.236723,22.225,3.253,-0.212,-0.103
20050628,230908,9653,32.707193,-117.236730,22.228,3.253,-0.206,-0.100
20050628,230939,9685,32.707205,-117.236723,22.229,3.253,-0.206,-0.100
20050628,231009,9715,32.707203,-117.236727,22.231,3.253,-0.206,-0.100
20050628,231039,9744,32.707201,-117.236723,22.233,3.253,-0.206,-0.100
20050628,231109,9774,32.707203,-117.236722,22.235,3.253,-0.206,-0.100
20050628,231139,9805,32.707208,-117.236725,22.237,3.253,-0.206,-0.100
20050628,231209,9835,32.707203,-117.236722,22.239,3.253,-0.206,-0.100
20050628,231240,9865,32.707201,-117.236727,22.242,3.253,-0.206,-0.100
20050628,231310,9896,32.707208,-117.236727,22.243,3.253,-0.206,-0.100
20050628,231340,9926,32.707206,-117.236727,22.245,3.253,-0.206,-0.100
20050628,231410,9956,32.707170,-117.236730,22.247,3.253,-0.206,-0.100
20050628,231440,9985,32.707171,-117.236725,22.249,3.253,-0.212,-0.103
20050628,231510,10015,32.707175,-117.236728,22.250,3.253,-0.206,-0.100
20050628,231540,10046,32.707180,-117.236723,22.253,3.253,-0.206,-0.100
20050628,231610,10076,32.707180,-117.236727,22.254,3.253,-0.212,-0.103
20050628,231641,10106,32.707180,-117.236730,22.257,3.253,-0.206,-0.100
20050628,231711,10137,32.707181,-117.236732,22.258,3.253,-0.206,-0.100